Hourly Data Report for October 26, 2004

SHERBROOKE A
QUEBEC

45°26'00.000" N
71°41'00.000" W
241.40 m
7028124
71610
YSC

Download Data

Hourly Data (October 2004)
Hourly Data Report for October 26, 2004
TIME
LST
Temp Definition
°C
Dew Point Definition
°C
Rel Hum Definition
%
Precip. Amount Definition
mm

Wind Dir Definition
10's deg

Wind Spd Definition
km/h
Visibility Definition
km
Stn Press Definition
kPa
Hmdx Definition


Wind Chill Definition


Weather Definition


00:00 -1.3 -2.6 91     0 8.0 99.06      
01:00 -1.2 -2.5 91     0 8.0 99.08      
02:00 0.2 -0.7 94   25 4 8.0 99.11      
03:00 0.4 -0.7 92     0 12.9 99.13      
04:00 0.7 -0.4 92     0 15.0 99.17      
05:00 0.9 -0.3 92     0 12.9 99.22      
06:00 1.4 0.3 92   22 4 12.9 99.26      
07:00 1.8 0.5 91     0 19.3 99.26     Mostly Cloudy
08:00 2.9 1.3 89   24 4 19.3 99.29     Mostly Cloudy
09:00 4.7 2.8 87   27 6 19.3 99.29     Mostly Cloudy
10:00 7.2 3.1 75   24 6 19.3 99.29     Mostly Cloudy
11:00 8.6 2.0 63   33 9 24.1 99.24     Mainly Clear
12:00 10.0 2.9 61   31 13 24.1 99.19     Mainly Clear
13:00 10.9 3.2 59   32 9 24.1 99.14     Mainly Clear
14:00 11.4 4.1 61   30 20 24.1 99.13     Mostly Cloudy
15:00 10.3 3.6 63   31 17 24.1 99.17     Mostly Cloudy
16:00 9.4 3.6 67   31 13 24.1 99.19     Mostly Cloudy
17:00 8.4 3.7 72   28 9 15.0 99.17      
18:00 6.6 3.2 79   29 6 15.0 99.25      
19:00 6.9 3.5 79     0 12.9 99.25      
20:00 5.2 2.9 85   23 6 11.3 99.26      
21:00 5.5 3.2 85   26 4 11.3 99.32      
22:00 6.2 4.1 86   26 6 11.3 99.31      
23:00 6.5 4.1 85   25 7 11.3 99.31      

Notes on Data Quality.

Legend

  • E = Estimated
  • M = Missing
  • NA = Not Available*
  • [empty] = Indicates an unobserved value
Date modified: